Location: Moena
(46.3667°N, 11.6500°E)
Time: 15:53:43
(UTC+00:00)

NOSS 3-3 (C) - Pass Details

Date: 03 March 2021
Orbit: 813 x 1399 km, 63.4° (Epoch: 15 April)

Event Time Altitude Azimuth Distance (km) Brightness Sun altitude
Rises 20:08:48 0° 320° (NW) 3,959 8.1 -32.1°
Reaches altitude 10° 20:11:21 10° 321° (NW) 3,076 7.3 -32.4°
Enters shadow 20:18:50 89° 345° (NNW) 1,283 4.4 -33.6°
